OneWeb SL0049

operational
NORAD ID: 45154 Int'l Des: 2020-008 Owner: ONEWEB Country: UK Constellation: oneweb
LEOCIRCULARPOLARONEWEB_TYPE

关于 OneWeb SL0049

正在加载描述...

实时位置

正在加载3D地球...

即将过境

高度历史

Altitude vs Time

uPlot chart will show altitude changes over time

两行轨道根数

1 45154U 20008Z 25304.30321708 .00000112 00000-0 28433-3 0 9994
2 45154 87.8755 81.9131 0001296 92.6808 267.4468 13.10373489278053
Epoch: Oct 31, 2025 • Age: 10 hours

当前状态

高度 1249.5 km
速度 7.23 km/s
星下点 -72.78°S, 37.51°W
发射日期 Feb 6, 2020
运行时间 5.7 years
类型 internet

技术详情

分类 Payload
质量 148.00 kg
干质量 140.00 kg
总质量 148.00 kg
长度 1.30 m
直径 1.00 m
跨度 5.00 m
形状 Trapezoid+2 pan
制造商 ONEWUS
平台类型 ARROW
阶段状态 In Orbit
所有者/国家 ONEWEB/UK

大型星座

Loading constellations...